Regional Weather Roundup
Issued by NWS

Home | Current Version | Previous Version | Text Only | Print | Product List | Glossary Off
Versions: 1 2 3 4 5 6 7 8 9 10 11 12 13 14 15 16 17 18 19 20 21 22 23 24 25 26 27 28 29 30 31 32 33 34 35 36 37 38 39 40 41 42 43 44 45 46 47 48 49 50

000
ASUS43 KLOT 032000
RWRIL

ILLINOIS REGIONAL WEATHER ROUNDUP
NATIONAL WEATHER SERVICE CHICAGO/ROMEOVILLE IL
300 PM CDT MON AUG 03 2015

NOTE: "FAIR" INDICATES FEW OR NO CLOUDS BELOW 12,000 FEET WITH NO
SIGNIFICANT WEATHER AND/OR OBSTRUCTIONS TO VISIBILITY.

* THESE STATIONS ARE NOT UNDER NWS QUALITY CONTROL. THEY ALSO MAY NOT
  REPORT WEATHER SUCH AS PRECIPITATION OR FOG.

ILZ001-002-007-009-015-016-024-032100-
NORTHWEST ILLINOIS

CITY           SKY/WX    TMP DP  RH WIND       PRES   REMARKS
MOLINE         SUNNY     83  51  33 W8        29.91S HX  81
STERLING*      SUNNY     81  54  39 W9        29.88R HX  80
$$

ILZ003-004-008-010-011-017-018-032100-
NORTH CENTRAL ILLINOIS

CITY           SKY/WX    TMP DP  RH WIND       PRES   REMARKS
ROCKFORD       MOSUNNY   82  48  30 NW12      29.89S HX  81
$$

ILZ005-006-012>014-019>023-032100-
NORTHEAST ILLINOIS

CITY           SKY/WX    TMP DP  RH WIND       PRES   REMARKS
CHICAGO-OHARE  MOSUNNY   81  47  30 W13G24    29.85F HX  80
CHICAGO-MIDWAY MOSUNNY   83  47  28 W9        29.85S HX  81
AURORA         SUNNY     80  50  34 W14       29.88F HX  80
JOLIET*        SUNNY     81  52  36 W3        29.87S HX  80
WAUKEGAN       SUNNY     78  48  34 W12G23    29.84F
DUPAGE AIRPORT SUNNY     80  47  31 NW10      29.87S
WHEELING       SUNNY     81  45  28 NW13      29.86F HX  80
ROMEOVILLE*    SUNNY     80  50  35 W9        29.87S
NORTHERLY ISL    N/A     81  44  27 NW6         N/A  HX  80
$$

LMZ740>746-032100-
SOUTHERN LAKE MICHIGAN

STATION/POSITION SKY/WX   TEMP    WIND        PRES    VSBY  WAVE
                          AIR SEA DIR/SP/G                  HT/PER
                          (F)     (DEG/KT/KT) (MB)    (MI)  (FT/S)
HARRISON CRIB              77     320/ 14/ 16   N/A
BURNHAM HARBOR             80     270/  6/ 14   N/A
CALUMET HARBOR             73      60/  7/ 10   N/A
BURNS HARBOR               74      70/  6/  8 1011.9S
MICHIGAN CITY              74     350/  5/  6   N/A
MICHIGAN CITY 6N           72 74   10/  4/  6   N/A           3/ 4
ST. JOSEPH                 71 73  340/  8/  8   N/A           3/ 4
$$

ILZ025>027-034>036-040-047-049-050-058-095>099-032100-
WEST-CENTRAL ILLINOIS

CITY           SKY/WX    TMP DP  RH WIND       PRES   REMARKS
QUINCY         CLOUDY    81  62  52 W9        29.96R HX  82
MACOMB*        SUNNY     81  58  45 NW3       29.96R HX  81
$$

ILZ028>032-037-038-041>044-048-051>054-059>061-032100-
CENTRAL ILLINOIS

CITY           SKY/WX    TMP DP  RH WIND       PRES   REMARKS
DECATUR        MOSUNNY   87  62  43 W14G21    29.90S HX  87
PEORIA         SUNNY     83  56  39 NW10      29.92R HX  82
SPRINGFIELD    MOSUNNY   85  66  53 W10       29.92R HX  87
TAYLORVILLE    NOT AVBL
$$

ILZ033-039-045-046-055>057-062-063-032100-
EAST-CENTRAL ILLINOIS

CITY           SKY/WX    TMP DP  RH WIND       PRES   REMARKS
CHAMPAIGN      SUNNY     85  66  53 W10       29.89S HX  87
DANVILLE*      MOSUNNY   83  67  58 W6        29.85R HX  86
MATTOON        SUNNY     88  61  40 W9G22     29.88S HX  88
$$

ILZ079-100>102-032100-
SOUTHWEST ILLINOIS

CITY           SKY/WX    TMP DP  RH WIND       PRES   REMARKS
ALTON          MOSUNNY   86  68  54 W9        29.92R HX  89
BELLEVILLE     SUNNY     92  68  45 VRB6      29.90R HX  95
CAHOKIA*       SUNNY     94  64  37 NW9       29.91R HX  95
$$

ILZ064>066-069>071-074>076-080>082-084>086-088>090-092>094-032100-
SOUTH-CENTRAL ILLINOIS

CITY           SKY/WX    TMP DP  RH WIND       PRES   REMARKS
CARBONDALE     MOSUNNY   90  71  53 W8        29.90S HX  96
MARION         MOSUNNY   91  72  52 W15       29.91S HX  98
MT. VERNON     SUNNY     91  66  43 NW3       29.90S HX  94
SALEM*         SUNNY     92  65  40 W10G16    29.90S HX  94
$$

ILZ067-068-072-073-078-083-087-091-032100-
SOUTHEAST ILLINOIS

CITY           SKY/WX    TMP DP  RH WIND       PRES   REMARKS
LAWRENCEVILLE  SUNNY     92  68  45 NW12G23   29.86F HX  96
FLORA*         SUNNY     90  65  43 W13       29.88F HX  91
HARRISBURG*    SUNNY     93  71  48 W12       29.90S HX  99
ROBINSON*      SUNNY     89  69  51 W10       29.87S HX  93
CARMI*         SUNNY     90  65  43 W12       29.88S HX  91
$$

ABBREVIATIONS USED IN REMARKS
   TC - TEMPERATURE IN CELSIUS
  WCI - WIND CHILL INDEX
   HX - HEAT INDEX
  VSB - VISIBILITY
$$



USA.gov is the U.S. government's official web portal to all federal, state and local government web resources and services.